EW8037 Weather Reports


Display with metric or nautical units.
time (UTC)temp
F
wind
direction
speed
MPH
gust
MPH
rain 1hr
in
rain 24hr
in
rain mn
in
humidity
%
barometer
mb
20260504110516 44 0.0 0.0 0.00 0.00 0.00 87 1014.5
20260504100516 44 0.0 1.0 0.00 0.00 0.00 86 1014.4
20260504081516 44 0.0 2.0 0.00 0.00 0.00 85 1014.8
20260504080516 43 0.0 0.0 0.00 0.00 0.00 86 1014.8
20260504050516 45 0.0 0.0 0.00 0.00 0.00 63 1015.2
20260504045516 46 0.0 0.0 0.00 0.00 0.00 62 1015.3
20260504044536 46 0.0 1.0 0.00 0.00 0.00 62 1015.4
20260504043517 46 0.0 1.0 0.00 0.00 0.00 63 1015.3
20260504042516 46 0.0 0.0 0.00 0.00 0.00 62 1015.2
20260504041516 46 0.0 0.0 0.00 0.00 0.00 61 1015.2
20260504040515 46 0.0 1.0 0.00 0.00 0.00 64 1015.1
20260504035516 47 0.0 0.0 0.00 0.00 0.00 61 1015.0
20260504034515 47 0.0 0.0 0.00 0.00 0.00 61 1014.9
20260504033556 48 0.0 0.0 0.00 0.00 0.00 64 1015.0
20260504032515 48 0.0 0.0 0.00 0.00 0.00 63 1014.8
20260504031515 48 0.0 0.0 0.00 0.00 0.00 59 1014.9
20260504030535 49 0.0 0.0 0.00 0.00 0.00 58 1014.8
20260504025517 49 0.0 1.0 0.00 0.00 0.00 54 1014.7
20260504024537 50 0.0 1.0 0.00 0.00 0.00 54 1014.7
20260504023517 50 0.0 2.0 0.00 0.00 0.00 54 1014.7
20260504022517 51 0.0 0.0 0.00 0.00 0.00 56 1014.5
20260504021517 52 0.0 0.0 0.00 0.00 0.00 53 1014.5
20260504020517 53 0.0 0.0 0.00 0.00 0.00 47 1014.5
20260504015517 54 0.0 0.0 0.00 0.00 0.00 46 1014.5
20260504014517 54 0.0 2.0 0.00 0.00 0.00 44 1014.5
20260504013517 55 0.0 2.0 0.00 0.00 0.00 44 1014.4
20260504012518 55 0.0 3.0 0.00 0.00 0.00 42 1014.3
20260504011518 56 0.0 2.0 0.00 0.00 0.00 40 1014.3
20260504010517 56 0.0 3.0 0.00 0.00 0.00 39 1014.1
20260504005518 57 248 1.0 3.0 0.00 0.00 0.00 37 1014.1
20260504004517 57 0.0 1.0 0.00 0.00 0.00 37 1014.0
20260504003557 58 225 1.0 3.0 0.00 0.00 0.00 36 1014.0
20260504002517 58 158 1.0 4.0 0.00 0.00 0.00 36 1013.9
20260504001517 59 248 1.0 3.0 0.00 0.00 0.00 34 1014.0
20260504000518 59 0.0 0.0 0.00 0.00 0.00 34 1013.9
20260503235517 60 0.0 0.0 0.00 0.00 0.00 34 1013.8
20260503234537 60 315 1.0 4.0 0.00 0.00 0.00 34 1013.6
20260503233517 61 315 1.0 2.0 0.00 0.00 0.00 33 1013.7
20260503232517 61 315 1.0 5.0 0.00 0.00 0.00 32 1013.5
20260503231517 61 293 2.0 6.0 0.00 0.00 0.00 33 1013.5
20260503230517 62 293 2.0 5.0 0.00 0.00 0.00 32 1013.5
20260503225515 62 315 2.0 4.0 0.00 0.00 0.00 32 1013.4
20260503224516 62 315 4.0 11.0 0.00 0.00 0.00 31 1013.3
20260503223515 62 315 4.0 11.0 0.00 0.00 0.00 31 1013.3
20260503222515 62 315 3.0 9.0 0.00 0.00 0.00 32 1013.5
20260503221516 62 315 3.0 7.0 0.00 0.00 0.00 31 1013.5
20260503220515 63 225 3.0 9.0 0.00 0.00 0.00 30 1013.5
20260503215515 63 293 3.0 11.0 0.00 0.00 0.00 32 1013.5
20260503214536 63 315 3.0 9.0 0.00 0.00 0.00 30 1013.6
20260503213517 64 315 2.0 10.0 0.00 0.00 0.00 31 1013.6
20260503212537 63 293 3.0 8.0 0.00 0.00 0.00 31 1013.8
20260503211518 63 315 5.0 11.0 0.00 0.00 0.00 30 1013.7
20260503210558 63 315 3.0 7.0 0.00 0.00 0.00 29 1013.7
20260503205518 64 293 4.0 8.0 0.00 0.00 0.00 30 1013.8
20260503204517 64 315 4.0 11.0 0.00 0.00 0.00 29 1013.6
20260503203518 64 293 4.0 11.0 0.00 0.00 0.00 32 1013.8
20260503202517 63 293 4.0 8.0 0.00 0.00 0.00 32 1013.8
20260503201517 63 293 4.0 9.0 0.00 0.00 0.00 30 1013.9
20260503200517 63 315 5.0 10.0 0.00 0.00 0.00 30 1014.0
20260503195518 63 315 3.0 7.0 0.00 0.00 0.00 33 1014.3
20260503194538 62 270 2.0 7.0 0.00 0.00 0.00 32 1014.4
20260503193518 62 293 4.0 9.0 0.00 0.00 0.00 32 1014.6
20260503192537 61 315 3.0 8.0 0.00 0.00 0.00 33 1014.8
20260503191517 60 315 4.0 8.0 0.00 0.00 0.00 31 1014.8
20260503190517 61 315 6.0 14.0 0.00 0.00 0.00 32 1015.0
20260503185537 61 315 5.0 12.0 0.00 0.00 0.00 33 1015.0
20260503184517 61 293 6.0 12.0 0.00 0.00 0.00 33 1015.2
20260503183537 61 315 3.0 8.0 0.00 0.00 0.00 34 1015.2
20260503182517 60 315 3.0 7.0 0.00 0.00 0.00 35 1015.2
20260503181517 60 293 3.0 9.0 0.00 0.00 0.00 35 1015.5
20260503180517 59 315 5.0 12.0 0.00 0.00 0.00 36 1015.5
20260503175517 59 293 5.0 11.0 0.00 0.00 0.00 35 1015.6
20260503174517 59 315 6.0 13.0 0.00 0.00 0.00 37 1015.6
20260503173557 59 293 5.0 12.0 0.00 0.00 0.00 39 1015.8
20260503172517 58 293 5.0 11.0 0.00 0.00 0.00 40 1015.8
20260503171518 58 315 4.0 10.0 0.00 0.00 0.00 40 1015.9
20260503170517 57 293 4.0 11.0 0.00 0.00 0.00 45 1016.1
20260503150517 53 315 5.0 10.0 0.00 0.00 0.00 46 1017.1
20260503130516 47 315 2.0 6.0 0.00 0.00 0.00 58 1017.4